Location: Unspecified
(0.0000°N, 0.0000°E)
Time: 13:29:51
(UTC+00:00)

BEESAT 2 - Pass Details

Date: 15 December 2019
Orbit: 489 x 536 km, 64.9° (Epoch: 14 August)

Event Time Altitude Azimuth Distance (km) Brightness Sun altitude
Rises 18:44:30 0° 327° (NNW) 2,667 ? -11.3°
Reaches altitude 10° 18:46:45 10° 320° (NW) 1,783 ? -11.8°
Maximum altitude 18:50:33 43° 248° (WSW) 765 ? -12.7°
Drops below altitude 10° 18:54:23 10° 176° (S) 1,793 ? -13.6°
Sets 18:56:40 0° 169° (S) 2,684 ? -14.1°
